Simultaneous Nadir Overpasses (SNOs) Predictions

Prediction of SNOs between AQUA and METOP-B Satellite Orbit:

Table of predicted SNOs for the next 14.0 days since TLE Epoch: 9/9/2023
Index Date (AQUA) Time (AQUA) Lat,Lon (AQUA) SZA (AQUA ) Date (METOP-B) Time (METOP-B) Lat,Lon (METOP-B) SZA (METOP-B ) Distance(km) Time Diff (sec)
1 09/11/2023 05:24:36 -74.77, -84.94 109.94 09/11/2023 05:23:28 -74.74, -84.93 109.97 3.57 68
2 09/11/2023 06:14:02 74.83, 82.57 70.13 09/11/2023 06:14:06 74.83, 82.64 70.13 2.19 4
3 09/11/2023 07:03:31 -75.11,-110.53 109.56 09/11/2023 07:04:41 -75.15,-109.13 109.55 40.25 70
4 09/13/2023 23:16:44 -74.82, 6.93 108.85 09/13/2023 23:16:23 -74.82, 7.03 108.85 2.90 21
5 09/14/2023 00:06:10 74.88, 174.43 71.23 09/14/2023 00:07:02 74.86, 174.47 71.20 3.01 52
6 09/16/2023 16:19:27 74.80, -68.65 72.17 09/16/2023 16:18:39 74.80, -68.59 72.18 1.83 48
7 09/16/2023 17:08:51 -74.83, 98.93 107.79 09/16/2023 17:09:20 -74.84, 98.84 107.78 2.84 29
8 09/19/2023 09:22:08 -74.79,-144.28 106.80 09/19/2023 09:20:57 -74.78,-144.23 106.80 1.94 71
9 09/19/2023 10:11:34 74.86, 23.21 73.29 09/19/2023 10:11:35 74.86, 23.33 73.29 3.52 1
10 09/19/2023 11:01:01 -75.04,-169.61 106.52 09/19/2023 11:02:13 -75.05,-168.83 106.52 22.62 72
11 09/22/2023 03:14:14 -74.85, -52.42 105.67 09/22/2023 03:13:53 -74.84, -52.33 105.69 3.56 21
12 09/22/2023 04:03:39 74.87, 115.19 74.36 09/22/2023 04:04:32 74.86, 115.09 74.36 2.97 53



Historial Predications of SNOs between AQUA and METOP-B
